Rough River Lake Weather Center

Moon Phase Calendar



Rough River Lake Water Level
Online Cameras

 


      

Current Conditions in Leitchfield
7/30/2021 5:55:04 AM

75°F
Feels Like 76
Clouds
Humidity
91%
Pressure
29.97"
Wind
4.9 mph (N)
Dew Point
72°F
UV Index
0/10 (Low)
Visibility
6 mi

Hourly Forecast

Date & Time Fri, Jul 30
5:00 AM
Fri, Jul 30
6:00 AM
Fri, Jul 30
7:00 AM
Fri, Jul 30
8:00 AM
Fri, Jul 30
9:00 AM
Fri, Jul 30
10:00 AM
Fri, Jul 30
11:00 AM
Fri, Jul 30
12:00 PM
Fri, Jul 30
1:00 PM
Fri, Jul 30
2:00 PM
Fri, Jul 30
3:00 PM
Fri, Jul 30
4:00 PM
Fri, Jul 30
5:00 PM
Fri, Jul 30
6:00 PM
Fri, Jul 30
7:00 PM
Fri, Jul 30
8:00 PM
Fri, Jul 30
9:00 PM
Fri, Jul 30
10:00 PM
Fri, Jul 30
11:00 PM
Sat, Jul 31
12:00 AM
Sat, Jul 31
1:00 AM
Sat, Jul 31
2:00 AM
Sat, Jul 31
3:00 AM
Sat, Jul 31
4:00 AM
Sat, Jul 31
5:00 AM
Sat, Jul 31
6:00 AM
Sat, Jul 31
7:00 AM
Sat, Jul 31
8:00 AM
Sat, Jul 31
9:00 AM
Sat, Jul 31
10:00 AM
Sat, Jul 31
11:00 AM
Sat, Jul 31
12:00 PM
Sat, Jul 31
1:00 PM
Sat, Jul 31
2:00 PM
Sat, Jul 31
3:00 PM
Sat, Jul 31
4:00 PM
Sat, Jul 31
5:00 PM
Sat, Jul 31
6:00 PM
Sat, Jul 31
7:00 PM
Sat, Jul 31
8:00 PM
Sat, Jul 31
9:00 PM
Sat, Jul 31
10:00 PM
Sat, Jul 31
11:00 PM
Sun, Aug 1
12:00 AM
Sun, Aug 1
1:00 AM
Sun, Aug 1
2:00 AM
Sun, Aug 1
3:00 AM
Sun, Aug 1
4:00 AM
Condition
Clouds

Clouds

Clouds

Clouds

Clouds

Clouds

Clouds

Clouds

Clouds

Clear

Clear

Clouds

Clouds

Clouds

Clouds

Clouds

Clouds

Clouds

Clouds

Clouds

Clouds

Clouds

Clouds

Clouds

Clouds

Clouds

Clouds

Clouds

Clouds

Clouds

Clouds

Clouds

Clouds

Clouds

Clouds

Clouds

Clouds

Rain

Clouds

Clouds

Clouds

Clouds

Clouds

Clouds

Clouds

Clouds

Clouds

Clouds
Temperature 75°F75°F75°F75°F76°F79°F82°F84°F85°F86°F85°F84°F82°F79°F76°F72°F70°F68°F66°F64°F64°F63°F62°F62°F61°F61°F63°F68°F72°F75°F78°F80°F81°F82°F81°F76°F71°F67°F66°F65°F63°F63°F62°F62°F62°F62°F61°F60°F
Feels Like 76°F76°F76°F77°F78°F79°F86°F88°F89°F89°F88°F86°F85°F79°F76°F73°F70°F68°F66°F65°F64°F63°F63°F62°F61°F61°F64°F68°F72°F76°F79°F80°F82°F83°F82°F77°F72°F67°F67°F65°F64°F63°F63°F62°F62°F62°F61°F61°F
Cloudiness 69%67%66%55%49%41%28%27%24%4%9%15%35%48%56%100%100%89%72%66%72%100%100%99%88%88%78%14%21%34%40%51%59%67%74%83%87%90%91%100%99%95%96%97%98%100%84%89%
Visibility 6 mi6 mi6 mi6 mi6 mi6 mi6 mi6 mi6 mi6 mi6 mi6 mi6 mi6 mi6 mi6 mi6 mi6 mi6 mi6 mi6 mi6 mi6 mi6 mi6 mi6 mi6 mi6 mi6 mi6 mi6 mi6 mi6 mi6 mi6 mi6 mi6 mi6 mi6 mi6 mi6 mi6 mi6 mi6 mi6 mi6 mi6 mi6 mi
Precipitation 29%31%22%1%0%0%0%0%0%0%0%0%0%0%0%0%0%0%0%0%0%0%0%0%0%0%0%0%0%0%0%0%0%7%7%7%18%37%37%1%3%2%0%0%0%0%0%0%
Humidity 93%91%93%92%88%79%68%63%58%54%52%54%61%67%72%74%79%83%88%91%92%91%93%94%95%95%90%80%74%68%62%57%53%50%53%68%76%88%90%91%93%92%91%90%90%90%91%91%
Dew Point 72°F72°F73°F73°F72°F72°F71°F70°F69°F67°F66°F66°F68°F67°F66°F64°F63°F62°F62°F62°F61°F61°F60°F60°F60°F60°F60°F62°F63°F64°F64°F63°F62°F61°F62°F65°F64°F63°F63°F62°F61°F60°F60°F59°F59°F59°F58°F58°F
Pressure 29.97"29.97"29.97"29.97"30"30"30.03"30.03"30"30"30"30"30"30"30.03"30.03"30.03"30.03"30.03"30.06"30.06"30.06"30.06"30.03"30.06"30.03"30.06"30.06"30.06"30.06"30.03"30.03"30.03"30.03"30"30"30"29.97"30"30"30"30"30"29.97"29.97"29.97"29.97"29.97"
Wind Speed 4.2 mph4.9 mph6.3 mph8.6 mph8.6 mph8.8 mph8.6 mph8.8 mph9 mph9 mph9.5 mph9.5 mph9 mph8.8 mph9 mph8.3 mph7 mph6.8 mph6.1 mph6.2 mph6.4 mph6.3 mph6 mph5.9 mph5.7 mph5.8 mph4.6 mph4.9 mph4 mph2.9 mph2.3 mph3.1 mph5.7 mph6.2 mph6.8 mph6.2 mph9.7 mph7.3 mph7.2 mph6.4 mph4.8 mph4.5 mph3.6 mph3.5 mph2.3 mph1.7 mph2.3 mph1.4 mph
Wind
Direction
326°
NW
356°
N
19°
NNE
24°
NNE
22°
NNE
20°
NNE
19°
NNE
15°
NNE
14°
NNE
18°
NNE
18°
NNE
21°
NNE
19°
NNE
15°
NNE
17°
NNE
30°
NNE
33°
NNE
39°
NE
34°
NE
28°
NNE
33°
NNE
40°
NE
53°
NE
54°
NE
52°
NE
82°
E
71°
ENE
79°
E
80°
E
44°
NE
82°
E
313°
NW
320°
NW
335°
NNW
342°
NNW

N
354°
N
40°
NE
19°
NNE
34°
NE
58°
ENE
47°
NE
44°
NE
66°
ENE
127°
SE
47°
NE
27°
NNE
59°
ENE

Daily Forecast

Date High Low Precip. Humidity
Today
Jul 30

Rain
86 °F
66 °F
66%
63%
Saturday
Jul 31

Rain
82 °F
61 °F
37%
57%
Sunday
Aug 1

Rain
83 °F
60 °F
37%
61%
Monday
Aug 2

Rain
80 °F
63 °F
70%
66%
Tuesday
Aug 3

Clear
79 °F
60 °F
2%
54%
Wednesday
Aug 4

Clear
82 °F
61 °F
0%
50%
Thursday
Aug 5

Clear
84 °F
62 °F
0%
51%
Friday
Aug 6

Clear
86 °F
64 °F
0%
47%
Saturday
Aug 7

Clear
87 °F
64 °F
0%
46%
Sunday
Aug 8

Clouds
88 °F
67 °F
2%
45%
Monday
Aug 9

Clouds
85 °F
67 °F
5%
54%
Tuesday
Aug 10

Rain
82 °F
69 °F
100%
79%
Wednesday
Aug 11

Rain
86 °F
68 °F
100%
61%
Thursday
Aug 12

Rain
86 °F
71 °F
100%
66%
Friday
Aug 13

Rain
78 °F
70 °F
97%
86%
Saturday
Aug 14

Rain
88 °F
69 °F
36%
73%

Temperature 8-14 Day Outlook



Precipitation 8-14 Day Outlook




Quick Links
Rough River Lake News
Rough River Lake Photos
Rough River Lake Videos




About Us
Contact Us
Site Map
Search Site
Advertise With Us
   
RoughRiver.USLakes.info
THE ROUGH RIVER LAKE WEBSITE

Copyright 2021, Lakes Online
Privacy    |    Legal